GW4629 Weather Reports


Display with metric or nautical units.
time (UTC)temp
F
wind
direction
speed
MPH
gust
MPH
rain 1hr
in
rain 24hr
in
rain mn
in
humidity
%
barometer
mb
20260505083323 32 256 4.0 4.0 0.00 0.02 0.02 99 1014.8
20260505082820 32 256 4.0 4.0 0.00 0.02 0.02 99 1014.8
20260505082316 32 228 3.0 3.0 0.00 0.02 0.02 99 1015.2
20260505081813 32 228 3.0 3.0 0.00 0.02 0.02 99 1015.2
20260505081310 32 285 6.0 7.0 0.00 0.02 0.02 99 1015.1
20260505080806 32 285 6.0 7.0 0.00 0.02 0.02 99 1015.1
20260505080302 33 280 4.0 4.0 0.07 0.02 0.02 99 1015.2
20260505075758 33 280 4.0 4.0 0.07 0.02 0.02 99 1015.2
20260505075255 34 272 1.0 2.0 0.00 0.01 0.01 99 1015.3
20260505074752 34 272 1.0 2.0 0.00 0.01 0.01 99 1015.3
20260505074249 33 275 5.0 7.0 0.00 0.01 0.01 99 1015.3
20260505073747 33 275 5.0 7.0 0.00 0.01 0.01 99 1015.3
20260505073244 33 250 6.0 9.0 0.00 0.01 0.01 99 1015.4
20260505072741 33 250 6.0 9.0 0.00 0.01 0.01 99 1015.4
20260505072237 34 342 3.0 4.0 0.05 0.01 0.01 99 1015.6
20260505071733 34 342 3.0 4.0 0.05 0.01 0.01 99 1015.6
20260505071230 34 274 10.0 10.0 0.00 0.00 0.00 99 1015.3
20260505070728 34 274 10.0 10.0 0.00 0.00 0.00 99 1015.3
20260505070224 35 278 6.0 7.0 0.00 0.00 0.00 99 1015.3
20260505065720 35 278 6.0 7.0 0.00 0.00 0.00 99 1015.3
20260505065217 34 270 7.0 9.0 0.00 0.00 0.00 99 1015.4
20260505064713 34 270 7.0 9.0 0.00 0.00 0.00 99 1015.4
20260505064212 35 266 8.0 9.0 0.00 0.00 0.00 99 1015.2
20260505063709 35 266 8.0 9.0 0.00 0.00 0.00 99 1015.2
20260505063205 35 237 9.0 10.0 0.00 0.00 0.00 99 1015.4
20260505062701 35 237 9.0 10.0 0.00 0.00 0.00 99 1015.4
20260505062159 35 267 4.0 6.0 0.00 0.00 0.00 99 1015.7
20260505061655 35 267 4.0 6.0 0.00 0.00 0.00 99 1015.7
20260505061154 35 190 3.0 6.0 0.00 0.00 0.00 99 1014.8
20260505060651 35 190 3.0 6.0 0.00 0.00 0.00 99 1014.8
20260505060147 35 247 8.0 10.0 0.00 0.03 0.03 99 1014.6
20260505055643 35 247 8.0 10.0 0.00 0.03 0.03 99 1014.6
20260505055140 35 51 7.0 9.0 0.00 0.03 0.03 99 1014.3
20260505054637 35 51 7.0 9.0 0.00 0.03 0.03 99 1014.3
20260505054135 35 271 9.0 17.0 0.07 0.03 0.03 99 1014.2
20260505053632 35 271 9.0 17.0 0.07 0.03 0.03 99 1014.2
20260505053128 39 214 9.0 11.0 0.00 0.02 0.02 99 1014.2
20260505052626 39 214 9.0 11.0 0.00 0.02 0.02 99 1014.2
20260505052123 41 346 4.0 6.0 0.00 0.02 0.02 99 1014.9
20260505051620 41 346 4.0 6.0 0.00 0.02 0.02 99 1014.9
20260505051118 41 170 4.0 9.0 0.00 0.02 0.02 99 1014.6
20260505050615 41 170 4.0 9.0 0.00 0.02 0.02 99 1014.6
20260505050114 42 270 4.0 6.0 0.00 0.02 0.02 99 1014.8
20260505041543 44 306 4.0 6.0 0.00 0.02 0.02 99 1014.9
20260505041041 44 326 5.0 6.0 0.00 0.02 0.02 99 1014.9
20260505040538 44 326 5.0 6.0 0.00 0.02 0.02 99 1014.9
20260505040035 44 266 3.0 3.0 0.00 0.02 0.02 99 1014.9
20260505035531 44 266 3.0 3.0 0.00 0.02 0.02 99 1014.9
20260505035028 45 322 5.0 6.0 0.00 0.02 0.02 99 1014.7
20260505034524 45 322 5.0 6.0 0.00 0.02 0.02 99 1014.7
20260505034021 45 354 4.0 6.0 0.00 0.02 0.02 99 1014.7
20260505033518 45 354 4.0 6.0 0.00 0.02 0.02 99 1014.7
20260505033016 45 333 6.0 6.0 0.00 0.02 0.02 99 1014.7
20260505032514 45 333 6.0 6.0 0.00 0.02 0.02 99 1014.7
20260505032010 45 332 6.0 7.0 0.00 0.02 0.02 99 1014.7
20260505031508 45 332 6.0 7.0 0.00 0.02 0.02 99 1014.7
20260505031004 44 336 6.0 7.0 0.00 0.02 0.02 99 1014.2
20260505030500 44 336 6.0 7.0 0.00 0.02 0.02 99 1014.2
20260505025955 44 326 6.0 7.0 0.00 0.02 0.02 99 1013.9
20260505025453 44 326 6.0 7.0 0.00 0.02 0.02 99 1013.9
20260505024952 44 279 9.0 9.0 0.00 0.02 0.02 99 1014.3
20260505024448 44 279 9.0 9.0 0.00 0.02 0.02 99 1014.3
20260505023945 44 266 9.0 9.0 0.00 0.02 0.02 99 1014.1
20260505023442 44 266 9.0 9.0 0.00 0.02 0.02 99 1014.1
20260505022939 44 263 9.0 10.0 0.00 0.02 0.02 99 1013.9
20260505022437 44 263 9.0 10.0 0.00 0.02 0.02 99 1013.9
20260505021934 45 253 7.0 8.0 0.00 0.02 0.02 99 1013.8
20260505021430 45 253 7.0 8.0 0.00 0.02 0.02 99 1013.8
20260505020926 45 283 4.0 6.0 0.00 0.02 0.02 99 1013.9
20260505020422 45 283 4.0 6.0 0.00 0.02 0.02 99 1013.9
20260505015919 46 326 6.0 7.0 0.00 0.02 0.02 99 1013.7
20260505015416 46 326 6.0 7.0 0.00 0.02 0.02 99 1013.7
20260505014913 46 262 3.0 4.0 0.00 0.02 0.02 99 1013.4
20260505014410 46 262 3.0 4.0 0.00 0.02 0.02 99 1013.4
20260505013907 47 99 1.0 1.0 0.00 0.02 0.02 99 1013.8
20260505013404 47 99 1.0 1.0 0.00 0.02 0.02 99 1013.8
20260505012902 47 70 2.0 3.0 0.00 0.02 0.02 99 1013.9
20260505012400 47 70 2.0 3.0 0.00 0.02 0.02 99 1013.9
20260505011856 47 34 4.0 6.0 0.00 0.02 0.02 99 1013.7
20260505011353 47 34 4.0 6.0 0.00 0.02 0.02 99 1013.7
20260505010849 47 354 3.0 4.0 0.00 0.02 0.02 99 1013.9
20260505010345 47 354 3.0 4.0 0.00 0.02 0.02 99 1013.9
20260505005841 48 176 2.0 2.0 0.00 0.02 0.02 99 1013.7
20260505005338 48 176 2.0 2.0 0.00 0.02 0.02 99 1013.7
20260505004836 48 153 2.0 3.0 0.00 0.02 0.02 99 1013.9
20260505004331 48 153 2.0 3.0 0.00 0.02 0.02 99 1013.9
20260505003829 48 202 2.0 3.0 0.00 0.02 0.02 99 1013.9
20260505003326 48 202 2.0 3.0 0.00 0.02 0.02 99 1013.9
20260505002822 48 292 7.0 9.0 0.00 0.02 0.02 99 1013.8
20260505002319 48 292 7.0 9.0 0.00 0.02 0.02 99 1013.8
20260505001818 49 188 2.0 6.0 0.00 0.02 0.02 99 1014.1
20260505001314 49 188 2.0 6.0 0.00 0.02 0.02 99 1014.1
20260505000812 49 107 2.0 3.0 0.00 0.02 0.02 99 1014.2
20260505000310 49 107 2.0 3.0 0.00 0.02 0.02 99 1014.2
20260504235806 49 96 4.0 7.0 0.00 0.02 0.02 99 1014.2
20260504235304 49 96 4.0 7.0 0.00 0.02 0.02 99 1014.2
20260504234759 48 46 6.0 8.0 0.00 0.02 0.02 99 1014.3
20260504234257 48 46 6.0 8.0 0.00 0.02 0.02 99 1014.3
20260504233753 49 42 4.0 4.0 0.00 0.02 0.02 99 1014.2
20260504233249 49 42 4.0 4.0 0.00 0.02 0.02 99 1014.2
20260504232746 48 45 4.0 6.0 0.00 0.02 0.02 99 1014.2
20260504232243 48 45 4.0 6.0 0.00 0.02 0.02 99 1014.2
20260504231740 48 62 4.0 6.0 0.00 0.02 0.02 99 1013.9
20260504231236 49 79 5.0 6.0 0.00 0.02 0.02 99 1013.7
20260504230732 49 79 5.0 6.0 0.00 0.02 0.02 99 1013.7
20260504230231 50 97 3.0 3.0 0.00 0.02 0.02 99 1013.9
20260504225729 50 97 3.0 3.0 0.00 0.02 0.02 99 1013.9
20260504225225 50 82 3.0 3.0 0.00 0.02 0.02 99 1014.2
20260504224722 50 82 3.0 3.0 0.00 0.02 0.02 99 1014.2
20260504224220 50 68 5.0 7.0 0.00 0.02 0.02 99 1013.8
20260504223716 50 68 5.0 7.0 0.00 0.02 0.02 99 1013.8
20260504223211 51 67 5.0 7.0 0.00 0.02 0.02 99 1014.1
20260504222709 51 67 5.0 7.0 0.00 0.02 0.02 99 1014.1
20260504222205 50 350 4.0 6.0 0.00 0.02 0.02 99 1013.8
20260504221703 50 350 4.0 6.0 0.00 0.02 0.02 99 1013.8
20260504221200 52 7 4.0 4.0 0.00 0.02 0.02 99 1013.9
20260504220656 52 7 4.0 4.0 0.00 0.02 0.02 99 1013.9
20260504220154 48 323 2.0 2.0 0.00 0.02 0.02 99 1014.2
20260504215650 48 323 2.0 2.0 0.00 0.02 0.02 99 1014.2
20260504215148 46 77 2.0 2.0 0.00 0.02 0.02 99 1014.9
20260504214643 46 77 2.0 2.0 0.00 0.02 0.02 99 1014.9
20260504214140 46 296 4.0 4.0 0.05 0.02 0.02 99 1014.9
20260504213636 46 296 4.0 4.0 0.05 0.02 0.02 99 1014.9
20260504213133 46 312 6.0 7.0 0.00 0.01 0.01 99 1014.9
20260504212629 46 312 6.0 7.0 0.00 0.01 0.01 99 1014.9
20260504212126 46 334 6.0 8.0 0.07 0.01 0.01 99 1014.8
20260504211624 46 334 6.0 8.0 0.07 0.01 0.01 99 1014.8
20260504211120 48 274 8.0 9.0 0.00 0.00 0.00 99 1014.9
20260504210618 48 274 8.0 9.0 0.00 0.00 0.00 99 1014.9
20260504210114 49 282 4.0 8.0 0.00 0.00 0.00 99 1014.6
20260504205612 49 282 4.0 8.0 0.00 0.00 0.00 99 1014.6
20260504205109 50 259 5.0 7.0 0.00 0.00 0.00 99 1014.1
20260504204608 50 259 5.0 7.0 0.00 0.00 0.00 99 1014.1
20260504204106 53 259 10.0 11.0 0.00 0.00 0.00 99 1013.8
20260504203604 53 259 10.0 11.0 0.00 0.00 0.00 99 1013.8
20260504203101 51 326 8.0 10.0 0.00 0.00 0.00 99 1013.9
20260504202556 51 326 8.0 10.0 0.00 0.00 0.00 99 1013.9
20260504202054 51 262 10.0 10.0 0.00 0.00 0.00 99 1013.7
20260504201550 51 262 10.0 10.0 0.00 0.00 0.00 99 1013.7
20260504201049 53 273 5.0 7.0 0.00 0.00 0.00 99 1013.4
20260504200544 53 273 5.0 7.0 0.00 0.00 0.00 99 1013.4
20260504200042 55 87 6.0 9.0 0.00 0.00 0.00 99 1013.3
20260504195537 55 87 6.0 9.0 0.00 0.00 0.00 99 1013.3
20260504195034 55 201 9.0 11.0 0.00 0.00 0.00 99 1013.3
20260504194531 55 201 9.0 11.0 0.00 0.00 0.00 99 1013.3
20260504194026 55 262 4.0 8.0 0.00 0.00 0.00 99 1013.8
20260504193523 55 262 4.0 8.0 0.00 0.00 0.00 99 1013.8
20260504193022 56 322 6.0 10.0 0.00 0.00 0.00 99 1013.8
20260504192520 56 322 6.0 10.0 0.00 0.00 0.00 99 1013.8
20260504192018 55 44 7.0 10.0 0.00 0.00 0.00 99 1013.2
20260504191515 55 44 7.0 10.0 0.00 0.00 0.00 99 1013.2
20260504191011 57 42 8.0 10.0 0.00 0.00 0.00 99 1013.2
20260504190507 57 42 8.0 10.0 0.00 0.00 0.00 99 1013.2
20260504190003 59 134 12.0 14.0 0.00 0.00 0.00 99 1013.4
20260504185500 59 134 12.0 14.0 0.00 0.00 0.00 99 1013.4
20260504184957 61 73 16.0 19.0 0.00 0.00 0.00 99 1013.3
20260504184452 61 73 16.0 19.0 0.00 0.00 0.00 99 1013.3
20260504183948 61 99 15.0 17.0 0.00 0.00 0.00 99 1013.4
20260504183446 61 99 15.0 17.0 0.00 0.00 0.00 99 1013.4
20260504182944 58 150 17.0 18.0 0.00 0.00 0.00 99 1013.4
20260504182440 58 150 17.0 18.0 0.00 0.00 0.00 99 1013.4
20260504181938 59 90 16.0 18.0 0.00 0.00 0.00 99 1013.3
20260504181434 59 90 16.0 18.0 0.00 0.00 0.00 99 1013.3
20260504180933 59 82 13.0 18.0 0.00 0.00 0.00 99 1013.2
20260504180432 59 82 13.0 18.0 0.00 0.00 0.00 99 1013.2
20260504175930 62 53 8.0 10.0 0.00 0.00 0.00 99 1013.4
20260504175426 62 53 8.0 10.0 0.00 0.00 0.00 99 1013.4
20260504174924 60 85 8.0 10.0 0.00 0.00 0.00 99 1013.6
20260504174421 60 85 8.0 10.0 0.00 0.00 0.00 99 1013.6
20260504173919 59 153 13.0 15.0 0.00 0.00 0.00 99 1013.7
20260504173414 59 153 13.0 15.0 0.00 0.00 0.00 99 1013.7
20260504172913 61 77 7.0 9.0 0.00 0.00 0.00 99 1013.8
20260504172408 61 77 7.0 9.0 0.00 0.00 0.00 99 1013.8
20260504171905 60 86 13.0 15.0 0.00 0.00 0.00 99 1013.8
20260504171402 60 86 13.0 15.0 0.00 0.00 0.00 99 1013.8
20260504170859 60 58 18.0 21.0 0.00 0.00 0.00 99 1013.8
20260504170355 60 58 18.0 21.0 0.00 0.00 0.00 99 1013.8
20260504160314 57 136 11.0 13.0 0.00 0.00 0.00 99 1013.7
20260504150739 54 118 14.0 16.0 0.00 0.00 0.00 99 1014.2
20260504150236 54 118 14.0 16.0 0.00 0.00 0.00 99 1014.2
20260504141205 53 51 9.0 13.0 0.00 0.00 0.00 99 1014.3
20260504140702 52 83 9.0 13.0 0.00 0.00 0.00 99 1014.1
20260504140157 52 83 9.0 13.0 0.00 0.00 0.00 99 1014.1
20260504130626 46 132 7.0 8.0 0.00 0.00 0.00 99 1013.7
20260504130123 46 124 7.0 9.0 0.00 0.00 0.00 99 1013.8
20260504110514 45 88 9.0 9.0 0.00 0.00 0.00 99 1013.8
20260504100430 44 145 9.0 11.0 0.00 0.00 0.00 99 1013.9